User: anonymous   Login
Location: Caltech
(34.1382°N, 118.1253°W)
Time: 11:53:08
(UTC-08:00)
Language:

SL-08 R/B - Orbit

View from above orbital plane
View from above orbital plane
View from above satellite
View from above satellite

Ground track
Ground track

The orbit data is extracted from the following two-line orbital elements,

1 27561U 02054C   14327.51100726  .00000746  00000-0  18108-3 0  3498
2 27561 098.1282 103.1067 0046663 194.1592 207.8737 14.55075113636042
Epoch (UTC): 23 November 2014 12:15:51
Eccentricity: 0.0046663
inclination: 98.1282°
perigee height: 676 km
apogee height: 742 km
right ascension of ascending node: 103.1067°
argument of perigee: 194.1592°
revolutions per day: 14.55075113
mean anomaly at epoch: 207.8737°
orbit number at epoch: 63604

The dashed part of the orbit path shows where the satellite is in the earth's shadow,  

DLR